Location: Eschentzwiller
(47.7125°N, 7.3981°E)
Time: 04:40:23
(UTC+00:00)

IRS-1C Rocket - Pass Details

Date: 27 October 2020
Orbit: 800 x 805 km, 99.0° (Epoch: 01 December)

Event Time Altitude Azimuth Distance (km) Brightness Sun altitude
Rises 17:40:19 0° 166° (SSE) 3,302 7.2 -14.0°
Reaches altitude 10° 17:42:38 10° 168° (SSE) 2,376 6.5 -14.4°
Maximum altitude 17:47:54 79° 255° (WSW) 824 4.2 -15.3°
Drops below altitude 10° 17:53:13 10° 343° (NNW) 2,397 6.7 -16.2°
Sets 17:55:34 0° 345° (NNW) 3,332 7.5 -16.6°
